contact:dominique.lefevre@mio.osupytheas.fr, maurice.libes@osupytheas.fr, didier.mallarino@osupytheas.fr
Project:EMSO http://www.emso-fr.org/EMSO-France
Depth: 2436.0 m
Title:EMSO Ligure Ouest : Data MII capteur AQUADOPP
Date,Latitude,Longitude,X_East,Y_North,Z_Up,Amplitude_X,Amplitude_Y,Amplitude_Z,Batterie,SoundSpeed,Heading,Pitch,Roll,Pressure,TIS,Speed,Direction
, degrees North, degrees East, m.s-1, m.s-1,m.s-1, 1, 1, 1, Volt, m.s-1, degree, degree, degree, dbar, degree_C, m.s-1, degree
2021-10-07T00:04:03,42.805,6.029,0.008,-0.029,-0.015,104.0,103.0,102.0,13.4,1505.2,325.3,-0.7,1.8,2470.489,13.28,0.03,164.6
2021-10-07T00:07:03,42.805,6.029,0.002,-0.011,0.001,102.0,102.0,102.0,13.3,1505.2,325.9,-0.8,1.9,2470.506,13.28,0.011,169.7
2021-10-07T00:10:03,42.805,6.029,-0.003,-0.017,-0.01,103.0,103.0,102.0,13.3,1505.2,327.7,-0.8,1.8,2470.512,13.28,0.017,190.0
2021-10-07T00:13:03,42.805,6.029,0.041,-0.032,-0.009,103.0,102.0,102.0,13.4,1505.2,326.3,-0.7,1.8,2470.514,13.28,0.052,128.0
2021-10-07T00:16:03,42.805,6.029,0.003,-0.024,-0.008,102.0,103.0,101.0,13.4,1505.2,325.1,-0.8,1.8,2470.471,13.28,0.024,172.9
2021-10-07T00:19:03,42.805,6.029,0.032,-0.015,-0.032,103.0,103.0,102.0,13.4,1505.2,328.4,-0.7,1.8,2470.487,13.28,0.035,115.1
2021-10-07T00:22:03,42.805,6.029,0.024,-0.036,-0.02,104.0,102.0,102.0,13.4,1505.2,327.2,-0.7,1.8,2470.483,13.28,0.043,146.3
2021-10-07T00:25:03,42.805,6.029,0.017,-0.019,-0.004,102.0,101.0,102.0,13.4,1505.2,328.8,-0.7,1.8,2470.497,13.28,0.025,138.2
2021-10-07T00:28:03,42.805,6.029,-0.016,-0.018,-0.003,102.0,103.0,101.0,13.4,1505.2,328.4,-0.7,1.8,2470.508,13.28,0.024,221.6
2021-10-07T00:31:03,42.805,6.029,0.0,-0.017,-0.006,103.0,104.0,103.0,13.4,1505.2,325.9,-0.8,1.8,2470.46,13.28,0.017,180.0
2021-10-07T00:34:03,42.805,6.029,0.033,-0.02,-0.009,103.0,102.0,101.0,13.3,1505.2,325.4,-0.7,1.8,2470.429,13.28,0.038,121.2
2021-10-07T00:37:03,42.805,6.029,0.014,-0.039,-0.008,105.0,104.0,100.0,13.4,1505.2,326.8,-0.7,1.8,2470.472,13.28,0.041,160.3
2021-10-07T00:40:03,42.805,6.029,0.018,-0.015,-0.024,103.0,104.0,102.0,13.3,1505.2,325.4,-0.8,1.8,2470.468,13.28,0.023,129.8
2021-10-07T00:43:03,42.805,6.029,0.02,-0.009,-0.012,104.0,103.0,101.0,13.4,1505.2,328.8,-0.8,1.8,2470.447,13.28,0.021,114.2
2021-10-07T00:46:03,42.805,6.029,0.015,-0.022,0.001,103.0,103.0,102.0,13.3,1505.2,330.3,-0.8,1.8,2470.452,13.28,0.026,145.7
2021-10-07T00:49:03,42.805,6.029,0.003,-0.024,0.004,102.0,102.0,102.0,13.4,1505.2,327.2,-0.7,1.8,2470.446,13.28,0.024,172.9
2021-10-07T00:52:03,42.805,6.029,0.021,-0.009,0.028,104.0,103.0,102.0,13.4,1505.2,329.8,-0.8,1.8,2470.431,13.28,0.022,113.2
2021-10-07T00:55:03,42.805,6.029,0.016,-0.025,0.011,104.0,103.0,102.0,13.3,1505.2,331.1,-0.8,1.8,2470.443,13.28,0.029,147.4
2021-10-07T00:58:03,42.805,6.029,-0.004,0.0,-0.011,103.0,103.0,103.0,13.4,1505.2,325.6,-0.8,1.9,2470.423,13.28,0.004,270.0
2021-10-07T01:04:03,42.805,6.029,0.0,-0.001,0.014,108.0,104.0,103.0,13.4,1505.2,329.2,-0.7,1.9,2470.458,13.28,0.001,180.0
2021-10-07T01:07:03,42.805,6.029,0.025,-0.019,0.006,104.0,105.0,103.0,13.4,1505.2,329.7,-0.7,1.9,2470.486,13.28,0.031,127.2
2021-10-07T01:10:03,42.805,6.029,-0.008,-0.021,-0.025,106.0,104.0,103.0,13.4,1505.2,329.6,-0.8,1.9,2470.45,13.28,0.022,200.9
2021-10-07T01:13:03,42.805,6.029,0.006,0.002,0.022,105.0,104.0,103.0,13.3,1505.2,328.4,-0.7,1.8,2470.466,13.28,0.006,71.6
2021-10-07T01:16:03,42.805,6.029,0.018,-0.031,0.019,102.0,103.0,102.0,13.4,1505.2,330.6,-0.8,1.8,2470.407,13.28,0.035,149.9
2021-10-07T01:19:03,42.805,6.029,0.014,-0.017,-0.011,105.0,103.0,101.0,13.3,1505.2,329.7,-0.8,1.8,2470.435,13.28,0.022,140.5
2021-10-07T01:22:03,42.805,6.029,0.007,-0.028,-0.014,104.0,103.0,102.0,13.4,1505.2,326.3,-0.8,1.8,2470.395,13.28,0.028,166.0
2021-10-07T01:25:03,42.805,6.029,-0.002,-0.026,-0.009,104.0,104.0,102.0,13.3,1505.2,328.0,-0.8,1.8,2470.417,13.28,0.026,184.4
2021-10-07T01:28:03,42.805,6.029,0.019,-0.043,0.017,104.0,103.0,102.0,13.4,1505.2,326.0,-0.8,1.8,2470.448,13.28,0.047,156.2
2021-10-07T01:31:03,42.805,6.029,0.008,-0.028,-0.019,104.0,104.0,102.0,13.3,1505.2,326.6,-0.8,1.8,2470.412,13.28,0.029,164.1
2021-10-07T01:34:03,42.805,6.029,0.0,0.001,-0.008,105.0,104.0,101.0,13.4,1505.2,330.0,-0.7,1.8,2470.428,13.28,0.001,0.0
2021-10-07T01:37:03,42.805,6.029,0.012,-0.037,0.009,104.0,103.0,102.0,13.3,1505.2,327.6,-0.7,1.8,2470.418,13.28,0.038,162.0
2021-10-07T01:40:03,42.805,6.029,0.006,-0.028,-0.004,102.0,103.0,102.0,13.4,1505.2,329.0,-0.8,1.8,2470.421,13.28,0.028,167.9
2021-10-07T01:43:03,42.805,6.029,0.018,-0.027,-0.035,104.0,102.0,102.0,13.4,1505.2,327.7,-0.8,1.8,2470.387,13.28,0.032,146.3
2021-10-07T01:46:03,42.805,6.029,0.008,-0.025,-0.002,103.0,102.0,103.0,13.4,1505.2,327.8,-0.8,1.8,2470.398,13.28,0.026,162.3
2021-10-07T01:49:03,42.805,6.029,0.009,-0.03,0.011,103.0,103.0,102.0,13.4,1505.2,329.8,-0.8,1.8,2470.461,13.28,0.031,163.3
2021-10-07T01:52:03,42.805,6.029,0.012,-0.026,-0.006,104.0,104.0,102.0,13.4,1505.2,327.9,-0.7,1.8,2470.391,13.28,0.028,155.2
2021-10-07T01:55:03,42.805,6.029,-0.001,-0.014,-0.023,103.0,103.0,102.0,13.4,1505.2,329.3,-0.8,1.8,2470.368,13.29,0.014,184.1
2021-10-07T01:58:03,42.805,6.029,-0.019,-0.005,-0.023,103.0,104.0,103.0,13.3,1505.2,328.2,-0.7,1.8,2470.431,13.29,0.019,255.3
2021-10-07T02:04:03,42.805,6.029,-0.03,-0.003,0.003,103.0,103.0,102.0,13.4,1505.2,326.8,-0.8,1.8,2470.454,13.28,0.03,264.3
2021-10-07T02:07:03,42.805,6.029,-0.02,-0.007,-0.004,104.0,102.0,101.0,13.3,1505.2,328.6,-0.7,1.8,2470.421,13.28,0.021,250.7
2021-10-07T02:10:03,42.805,6.029,-0.009,-0.005,-0.008,103.0,103.0,101.0,13.4,1505.2,328.4,-0.7,1.8,2470.419,13.28,0.01,240.9
2021-10-07T02:13:03,42.805,6.029,-0.015,0.016,-0.034,104.0,103.0,101.0,13.4,1505.2,329.0,-0.7,1.8,2470.409,13.29,0.021,316.9
2021-10-07T02:16:03,42.805,6.029,-0.021,-0.004,-0.029,104.0,103.0,100.0,13.3,1505.2,329.9,-0.7,1.8,2470.412,13.29,0.021,259.2
2021-10-07T02:19:03,42.805,6.029,-0.028,-0.02,-0.028,103.0,105.0,102.0,13.3,1505.2,328.0,-0.8,1.8,2470.432,13.29,0.034,234.5
2021-10-07T02:22:03,42.805,6.029,-0.002,-0.013,-0.002,103.0,103.0,102.0,13.4,1505.2,328.2,-0.8,1.8,2470.38,13.29,0.013,188.7
2021-10-07T02:25:03,42.805,6.029,-0.02,-0.006,-0.014,102.0,104.0,102.0,13.4,1505.2,332.0,-0.8,1.8,2470.395,13.29,0.02,253.3
2021-10-07T02:28:03,42.805,6.029,0.001,-0.011,-0.001,104.0,104.0,102.0,13.4,1505.2,328.0,-0.7,1.8,2470.401,13.29,0.011,174.8
2021-10-07T02:31:03,42.805,6.029,-0.025,-0.021,-0.016,103.0,103.0,101.0,13.4,1505.2,329.6,-0.8,1.8,2470.398,13.29,0.032,230.0
2021-10-07T02:34:03,42.805,6.029,-0.013,-0.012,0.001,103.0,102.0,102.0,13.4,1505.2,326.7,-0.7,1.8,2470.411,13.29,0.017,227.3
2021-10-07T02:37:03,42.805,6.029,-0.021,-0.016,-0.016,103.0,102.0,101.0,13.4,1505.2,328.0,-0.7,1.8,2470.418,13.29,0.026,232.7
2021-10-07T02:40:03,42.805,6.029,-0.026,-0.012,0.006,102.0,104.0,101.0,13.4,1505.2,327.6,-0.8,1.8,2470.41,13.29,0.028,245.2
2021-10-07T02:43:03,42.805,6.029,-0.02,0.001,0.005,104.0,103.0,101.0,13.4,1505.2,327.7,-0.8,1.8,2470.412,13.29,0.02,272.9
2021-10-07T02:46:03,42.805,6.029,-0.016,-0.006,-0.002,105.0,101.0,100.0,13.4,1505.2,326.1,-0.8,1.9,2470.382,13.29,0.017,249.4
2021-10-07T02:49:03,42.805,6.029,-0.012,0.0,-0.027,104.0,102.0,102.0,13.4,1505.2,325.3,-0.8,1.8,2470.41,13.29,0.012,270.0
2021-10-07T02:52:03,42.805,6.029,-0.027,0.0,-0.035,101.0,103.0,102.0,13.4,1505.2,331.0,-0.8,1.8,2470.429,13.29,0.026,270.0
2021-10-07T02:55:03,42.805,6.029,-0.01,0.0,-0.016,103.0,102.0,102.0,13.4,1505.2,327.0,-0.7,1.8,2470.404,13.29,0.01,270.0
2021-10-07T02:58:03,42.805,6.029,-0.017,-0.002,0.011,104.0,103.0,101.0,13.4,1505.2,330.0,-0.7,1.8,2470.4,13.29,0.017,263.3
2021-10-07T03:04:03,42.805,6.029,0.0,-0.019,-0.035,103.0,102.0,102.0,13.3,1505.2,325.6,-0.8,1.8,2470.435,13.29,0.019,180.0
2021-10-07T03:07:03,42.805,6.029,0.001,-0.024,-0.03,104.0,102.0,101.0,13.4,1505.2,329.9,-0.8,1.8,2470.425,13.29,0.024,177.6
2021-10-07T03:10:03,42.805,6.029,-0.041,0.002,-0.036,104.0,103.0,100.0,13.4,1505.2,328.9,-0.8,1.8,2470.427,13.29,0.041,272.8
2021-10-07T03:13:03,42.805,6.029,-0.018,-0.008,-0.044,103.0,101.0,102.0,13.4,1505.2,328.6,-0.8,1.8,2470.435,13.29,0.019,246.0
2021-10-07T03:16:03,42.805,6.029,-0.024,-0.01,-0.016,102.0,103.0,101.0,13.4,1505.2,329.1,-0.7,1.8,2470.466,13.29,0.026,247.4
2021-10-07T03:19:03,42.805,6.029,-0.003,-0.022,0.011,104.0,103.0,102.0,13.3,1505.2,327.3,-0.7,1.8,2470.431,13.29,0.022,187.8
2021-10-07T03:22:03,42.805,6.029,0.003,0.005,-0.004,103.0,104.0,102.0,13.3,1505.2,329.7,-0.7,1.8,2470.428,13.29,0.005,31.0
2021-10-07T03:25:03,42.805,6.029,0.001,-0.002,0.002,104.0,102.0,102.0,13.4,1505.2,327.5,-0.8,1.8,2470.465,13.29,0.002,153.4
2021-10-07T03:28:03,42.805,6.029,-0.01,0.001,0.025,102.0,104.0,100.0,13.4,1505.2,328.2,-0.8,1.8,2470.454,13.29,0.01,275.7
2021-10-07T03:31:03,42.805,6.029,-0.016,-0.007,-0.011,102.0,103.0,101.0,13.4,1505.2,329.6,-0.8,1.8,2470.441,13.29,0.017,246.4
2021-10-07T03:34:03,42.805,6.029,-0.002,0.006,0.002,103.0,102.0,101.0,13.4,1505.2,329.2,-0.8,1.8,2470.415,13.29,0.006,341.6
2021-10-07T03:37:03,42.805,6.029,-0.015,0.003,-0.021,103.0,103.0,101.0,13.4,1505.2,330.1,-0.7,1.8,2470.401,13.29,0.015,281.3
2021-10-07T03:40:03,42.805,6.029,-0.022,0.008,-0.039,104.0,105.0,102.0,13.3,1505.2,326.7,-0.7,1.8,2470.482,13.29,0.023,290.0
2021-10-07T03:43:03,42.805,6.029,-0.019,-0.006,0.002,102.0,103.0,102.0,13.4,1505.2,325.0,-0.7,1.8,2470.453,13.29,0.019,252.5
2021-10-07T03:46:03,42.805,6.029,-0.006,-0.007,-0.007,103.0,102.0,101.0,13.4,1505.2,328.0,-0.8,1.8,2470.407,13.29,0.009,220.6
2021-10-07T03:49:03,42.805,6.029,-0.039,-0.013,-0.022,102.0,102.0,101.0,13.4,1505.2,329.7,-0.7,1.8,2470.406,13.29,0.041,251.6
2021-10-07T03:52:03,42.805,6.029,-0.001,-0.01,-0.005,102.0,102.0,101.0,13.4,1505.2,327.1,-0.8,1.9,2470.44,13.29,0.01,185.7
2021-10-07T03:55:03,42.805,6.029,-0.012,-0.019,-0.014,101.0,101.0,101.0,13.3,1505.2,326.9,-0.8,1.8,2470.437,13.29,0.022,212.3
2021-10-07T03:58:03,42.805,6.029,0.005,-0.012,-0.017,103.0,102.0,100.0,13.4,1505.2,327.0,-0.7,1.8,2470.448,13.29,0.013,157.4
2021-10-07T04:04:03,42.805,6.029,-0.014,-0.004,0.013,104.0,103.0,101.0,13.4,1505.2,330.1,-0.8,1.8,2470.478,13.29,0.014,254.1
2021-10-07T04:07:03,42.805,6.029,0.001,-0.008,0.0,103.0,103.0,101.0,13.3,1505.2,327.4,-0.7,1.8,2470.481,13.29,0.008,172.9
2021-10-07T04:10:03,42.805,6.029,0.0,-0.003,0.0,103.0,103.0,101.0,13.4,1505.2,330.8,-0.8,1.8,2470.493,13.29,0.003,180.0
2021-10-07T04:13:03,42.805,6.029,-0.002,-0.009,-0.023,103.0,102.0,101.0,13.3,1505.2,325.6,-0.7,1.8,2470.471,13.29,0.009,192.5
2021-10-07T04:16:03,42.805,6.029,-0.01,0.0,0.005,101.0,103.0,101.0,13.4,1505.2,329.1,-0.8,1.8,2470.474,13.29,0.01,270.0
2021-10-07T04:19:03,42.805,6.029,-0.019,-0.004,-0.039,103.0,103.0,101.0,13.4,1505.2,327.7,-0.7,1.8,2470.49,13.29,0.019,258.1
2021-10-07T04:22:03,42.805,6.029,-0.023,-0.012,-0.035,103.0,103.0,102.0,13.4,1505.2,331.4,-0.7,1.8,2470.502,13.29,0.025,242.4
2021-10-07T04:25:03,42.805,6.029,-0.003,-0.014,0.005,105.0,103.0,102.0,13.4,1505.2,331.0,-0.7,1.8,2470.468,13.29,0.014,192.1
2021-10-07T04:28:03,42.805,6.029,-0.004,-0.009,-0.023,103.0,102.0,102.0,13.4,1505.2,330.8,-0.8,1.8,2470.481,13.29,0.009,204.0
2021-10-07T04:31:03,42.805,6.029,-0.012,-0.009,0.022,102.0,104.0,101.0,13.3,1505.2,331.1,-0.7,1.8,2470.478,13.29,0.015,233.1
2021-10-07T04:34:03,42.805,6.029,0.009,0.002,0.0,102.0,104.0,100.0,13.3,1505.2,331.7,-0.7,1.8,2470.476,13.29,0.009,77.5
2021-10-07T04:37:03,42.805,6.029,-0.018,-0.01,-0.015,102.0,102.0,102.0,13.4,1505.2,331.6,-0.7,1.8,2470.467,13.29,0.02,240.9
2021-10-07T04:40:03,42.805,6.029,0.0,-0.017,-0.012,104.0,108.0,101.0,13.4,1505.2,327.8,-0.7,1.8,2470.515,13.29,0.017,180.0
2021-10-07T04:43:03,42.805,6.029,-0.005,-0.019,-0.012,103.0,102.0,101.0,13.3,1505.2,327.6,-0.7,1.8,2470.485,13.29,0.019,194.7
2021-10-07T04:46:03,42.805,6.029,0.015,-0.003,0.0,103.0,103.0,102.0,13.4,1505.2,325.2,-0.8,1.8,2470.494,13.29,0.015,101.3
2021-10-07T04:49:03,42.805,6.029,0.005,-0.029,-0.004,103.0,104.0,101.0,13.4,1505.2,325.7,-0.7,1.8,2470.49,13.29,0.029,170.2
2021-10-07T04:52:03,42.805,6.029,-0.002,-0.012,-0.003,104.0,103.0,102.0,13.4,1505.2,329.4,-0.7,1.8,2470.489,13.29,0.012,189.5
2021-10-07T04:55:03,42.805,6.029,-0.02,-0.012,0.0,104.0,102.0,101.0,13.4,1505.2,327.0,-0.8,1.8,2470.489,13.29,0.023,239.0
2021-10-07T04:58:03,42.805,6.029,-0.014,-0.019,-0.02,103.0,103.0,102.0,13.4,1505.2,327.1,-0.8,1.8,2470.508,13.29,0.023,216.4
2021-10-07T05:04:03,42.805,6.029,-0.007,-0.012,-0.024,103.0,102.0,101.0,13.3,1505.2,328.5,-0.7,1.8,2470.562,13.29,0.013,210.3
2021-10-07T05:07:03,42.805,6.029,0.004,-0.013,-0.018,102.0,103.0,102.0,13.4,1505.2,325.6,-0.8,1.8,2470.556,13.29,0.013,162.9
2021-10-07T05:10:03,42.805,6.029,-0.007,-0.001,-0.017,103.0,103.0,101.0,13.4,1505.2,327.1,-0.8,1.8,2470.572,13.29,0.007,261.9
2021-10-07T05:13:03,42.805,6.029,-0.022,0.001,-0.012,103.0,103.0,101.0,13.4,1505.2,328.0,-0.7,1.9,2470.569,13.29,0.022,272.6
2021-10-07T05:16:03,42.805,6.029,-0.022,-0.01,0.01,104.0,103.0,102.0,13.4,1505.2,331.3,-0.8,1.8,2470.573,13.29,0.024,245.6
2021-10-07T05:19:03,42.805,6.029,-0.019,-0.001,0.009,103.0,104.0,102.0,13.3,1505.2,331.2,-0.7,1.8,2470.508,13.29,0.019,267.0
2021-10-07T05:22:03,42.805,6.029,-0.013,-0.011,-0.007,103.0,104.0,102.0,13.4,1505.2,329.8,-0.7,1.9,2470.515,13.29,0.017,229.8
2021-10-07T05:25:03,42.805,6.029,-0.009,-0.003,-0.015,102.0,105.0,104.0,13.3,1505.2,330.6,-0.7,1.8,2470.589,13.29,0.009,251.6
2021-10-07T05:28:03,42.805,6.029,-0.027,-0.011,0.008,102.0,103.0,102.0,13.4,1505.2,331.0,-0.7,1.9,2470.575,13.29,0.029,247.8
2021-10-07T05:31:03,42.805,6.029,-0.024,0.001,0.017,104.0,102.0,101.0,13.3,1505.2,329.5,-0.8,1.8,2470.546,13.29,0.024,272.4
2021-10-07T05:34:03,42.805,6.029,-0.013,-0.01,-0.031,103.0,103.0,101.0,13.3,1505.2,327.5,-0.8,1.8,2470.57,13.29,0.016,232.4
2021-10-07T05:37:03,42.805,6.029,-0.029,0.0,-0.024,103.0,103.0,102.0,13.4,1505.2,329.2,-0.7,1.8,2470.572,13.29,0.028,270.0
2021-10-07T05:40:03,42.805,6.029,-0.006,-0.016,-0.005,103.0,103.0,102.0,13.4,1505.2,328.8,-0.8,1.8,2470.582,13.29,0.017,200.6
2021-10-07T05:43:03,42.805,6.029,-0.027,0.008,0.011,104.0,103.0,102.0,13.3,1505.2,329.0,-0.7,1.8,2470.521,13.29,0.028,286.5
2021-10-07T05:46:03,42.805,6.029,0.0,-0.009,0.018,103.0,103.0,102.0,13.4,1505.2,329.7,-0.7,1.8,2470.577,13.29,0.009,180.0
2021-10-07T05:49:03,42.805,6.029,-0.003,-0.002,-0.05,104.0,103.0,102.0,13.3,1505.2,329.9,-0.8,1.8,2470.555,13.29,0.003,236.3
2021-10-07T05:52:03,42.805,6.029,0.002,-0.019,-0.029,104.0,102.0,101.0,13.4,1505.2,328.5,-0.7,1.8,2470.568,13.29,0.019,174.0
2021-10-07T05:55:03,42.805,6.029,0.0,0.006,0.009,103.0,103.0,102.0,13.4,1505.2,330.9,-0.7,1.8,2470.61,13.29,0.006,0.0
2021-10-07T05:58:03,42.805,6.029,-0.038,-0.019,-0.009,103.0,102.0,102.0,13.4,1505.2,327.4,-0.8,1.8,2470.575,13.29,0.042,243.4
2021-10-07T06:04:03,42.805,6.029,0.007,-0.01,-0.003,103.0,103.0,101.0,13.4,1505.2,331.2,-0.8,1.8,2470.587,13.28,0.012,145.0
2021-10-07T06:07:03,42.805,6.029,-0.033,0.0,-0.004,103.0,102.0,102.0,13.3,1505.2,327.8,-0.8,1.8,2470.64,13.29,0.033,270.0
2021-10-07T06:10:03,42.805,6.029,-0.017,-0.007,-0.006,102.0,102.0,101.0,13.4,1505.2,328.2,-0.8,1.9,2470.618,13.29,0.018,247.6
2021-10-07T06:13:03,42.805,6.029,-0.037,-0.009,-0.017,103.0,103.0,103.0,13.4,1505.2,325.8,-0.8,1.8,2470.582,13.29,0.038,256.3
2021-10-07T06:16:03,42.805,6.029,-0.016,0.011,0.007,103.0,103.0,101.0,13.4,1505.2,327.3,-0.7,1.8,2470.631,13.29,0.019,304.5
2021-10-07T06:19:03,42.805,6.029,-0.01,-0.007,-0.031,103.0,104.0,102.0,13.4,1505.2,331.2,-0.8,1.8,2470.598,13.29,0.012,235.0
2021-10-07T06:22:03,42.805,6.029,-0.038,0.001,0.0,104.0,102.0,102.0,13.3,1505.2,327.2,-0.8,1.8,2470.608,13.29,0.038,271.5
2021-10-07T06:25:03,42.805,6.029,-0.007,-0.006,-0.025,102.0,103.0,102.0,13.4,1505.2,329.1,-0.7,1.8,2470.629,13.29,0.009,229.4
2021-10-07T06:28:03,42.805,6.029,-0.015,-0.017,0.007,103.0,102.0,101.0,13.4,1505.2,326.8,-0.8,1.9,2470.624,13.29,0.022,221.4
2021-10-07T06:31:03,42.805,6.029,-0.026,-0.024,-0.01,103.0,102.0,101.0,13.3,1505.2,329.7,-0.7,1.8,2470.591,13.29,0.035,227.3
2021-10-07T06:34:03,42.805,6.029,-0.025,-0.015,0.003,104.0,103.0,101.0,13.4,1505.2,330.9,-0.7,1.8,2470.613,13.29,0.029,239.0
2021-10-07T06:37:03,42.805,6.029,-0.01,-0.013,-0.019,103.0,101.0,101.0,13.4,1505.2,330.6,-0.8,1.8,2470.554,13.29,0.016,217.6
2021-10-07T06:40:03,42.805,6.029,-0.019,-0.013,-0.044,104.0,102.0,101.0,13.4,1505.2,331.4,-0.8,1.8,2470.581,13.29,0.023,235.6
2021-10-07T06:43:03,42.805,6.029,-0.029,0.011,-0.009,102.0,103.0,101.0,13.3,1505.2,331.4,-0.7,1.8,2470.601,13.29,0.031,290.8
2021-10-07T06:46:03,42.805,6.029,-0.034,-0.021,-0.028,104.0,103.0,103.0,13.4,1505.2,327.8,-0.7,1.8,2470.604,13.29,0.039,238.3
2021-10-07T06:49:03,42.805,6.029,-0.01,0.001,0.008,104.0,104.0,102.0,13.4,1505.2,326.3,-0.8,1.8,2470.639,13.29,0.01,275.7
2021-10-07T06:52:03,42.805,6.029,-0.036,-0.034,-0.047,103.0,105.0,102.0,13.4,1505.2,326.3,-0.8,1.8,2470.633,13.29,0.049,226.6
2021-10-07T06:55:03,42.805,6.029,-0.018,-0.011,-0.015,103.0,103.0,101.0,13.4,1505.2,327.2,-0.7,1.8,2470.604,13.29,0.021,238.6
2021-10-07T06:58:03,42.805,6.029,-0.045,0.0,-0.007,103.0,103.0,102.0,13.4,1505.2,331.3,-0.8,1.8,2470.593,13.29,0.045,270.0
2021-10-07T07:01:03,42.805,6.029,-0.034,-0.021,-0.01,104.0,104.0,102.0,13.4,1505.2,330.5,-0.8,1.8,2470.598,13.29,0.039,238.3
2021-10-07T07:04:03,42.805,6.029,-0.035,0.005,0.0,103.0,103.0,102.0,13.4,1505.2,327.5,-0.8,1.8,2470.636,13.29,0.035,278.1
2021-10-07T07:07:03,42.805,6.029,-0.018,0.007,-0.018,105.0,103.0,101.0,13.3,1505.2,327.1,-0.7,1.8,2470.612,13.29,0.019,291.2
2021-10-07T07:10:03,42.805,6.029,-0.038,-0.002,-0.008,104.0,104.0,102.0,13.3,1505.2,326.9,-0.8,1.8,2470.632,13.29,0.038,267.0
2021-10-07T07:13:03,42.805,6.029,-0.015,-0.02,-0.01,104.0,103.0,102.0,13.4,1505.2,325.8,-0.8,1.8,2470.639,13.29,0.025,216.9
2021-10-07T07:16:03,42.805,6.029,-0.031,-0.005,0.0,103.0,103.0,102.0,13.4,1505.2,329.6,-0.8,1.8,2470.639,13.29,0.031,260.8
2021-10-07T07:19:03,42.805,6.029,-0.024,-0.003,-0.007,103.0,103.0,103.0,13.4,1505.2,330.0,-0.8,1.8,2470.621,13.29,0.024,262.9
2021-10-07T07:22:03,42.805,6.029,-0.033,-0.013,-0.021,104.0,105.0,102.0,13.4,1505.2,328.0,-0.8,1.8,2470.636,13.29,0.035,248.5
2021-10-07T07:25:03,42.805,6.029,-0.018,-0.044,-0.019,104.0,104.0,102.0,13.4,1505.2,329.7,-0.8,1.8,2470.622,13.29,0.047,202.2
2021-10-07T07:28:03,42.805,6.029,-0.029,0.015,0.004,104.0,105.0,101.0,13.4,1505.2,327.6,-0.7,1.8,2470.622,13.29,0.032,297.4
2021-10-07T07:31:03,42.805,6.029,-0.037,-0.001,-0.03,105.0,104.0,102.0,13.4,1505.2,326.1,-0.8,1.9,2470.67,13.29,0.037,268.5
2021-10-07T07:34:03,42.805,6.029,-0.041,-0.002,-0.031,105.0,103.0,103.0,13.4,1505.2,328.4,-0.7,1.8,2470.652,13.29,0.041,267.2
2021-10-07T07:37:03,42.805,6.029,-0.029,-0.003,0.032,103.0,104.0,102.0,13.4,1505.2,326.1,-0.7,1.8,2470.601,13.29,0.029,264.1
2021-10-07T07:40:03,42.805,6.029,-0.023,-0.011,-0.04,104.0,103.0,101.0,13.4,1505.2,327.0,-0.7,1.8,2470.638,13.29,0.025,244.4
2021-10-07T07:43:03,42.805,6.029,-0.019,-0.018,-0.021,105.0,104.0,102.0,13.4,1505.2,327.9,-0.7,1.8,2470.591,13.29,0.026,226.5
2021-10-07T07:46:03,42.805,6.029,-0.024,0.001,0.005,104.0,104.0,102.0,13.4,1505.2,329.1,-0.8,1.8,2470.594,13.29,0.024,272.4
2021-10-07T07:49:03,42.805,6.029,-0.039,0.0,0.005,105.0,103.0,101.0,13.4,1505.2,326.6,-0.8,1.8,2470.595,13.29,0.039,270.0
2021-10-07T07:52:03,42.805,6.029,-0.043,-0.005,-0.014,104.0,103.0,102.0,13.4,1505.2,329.6,-0.8,1.8,2470.61,13.29,0.043,263.4
2021-10-07T07:55:03,42.805,6.029,-0.039,-0.016,-0.014,104.0,103.0,102.0,13.4,1505.2,326.7,-0.7,1.8,2470.633,13.29,0.042,247.7
2021-10-07T07:58:03,42.805,6.029,-0.01,-0.039,-0.03,104.0,104.0,101.0,13.4,1505.2,325.1,-0.8,1.8,2470.591,13.29,0.04,194.4
2021-10-07T08:04:03,42.805,6.029,-0.023,-0.001,-0.017,104.0,103.0,101.0,13.4,1505.2,329.7,-0.8,1.8,2470.632,13.28,0.023,267.5
2021-10-07T08:07:03,42.805,6.029,-0.04,-0.005,-0.023,103.0,104.0,102.0,13.4,1505.2,329.1,-0.8,1.8,2470.667,13.28,0.04,262.9
2021-10-07T08:10:03,42.805,6.029,-0.043,0.02,0.019,104.0,101.0,102.0,13.3,1505.2,329.1,-0.8,1.8,2470.617,13.28,0.047,294.9
2021-10-07T08:13:03,42.805,6.029,-0.032,-0.004,-0.025,102.0,103.0,101.0,13.4,1505.2,329.2,-0.8,1.8,2470.631,13.28,0.032,262.9
2021-10-07T08:16:03,42.805,6.029,-0.024,0.003,0.008,103.0,103.0,101.0,13.3,1505.2,328.8,-0.8,1.8,2470.654,13.28,0.024,277.1
2021-10-07T08:19:03,42.805,6.029,-0.04,-0.013,-0.04,104.0,102.0,102.0,13.4,1505.2,329.6,-0.8,1.8,2470.595,13.28,0.042,252.0
2021-10-07T08:22:03,42.805,6.029,-0.015,0.017,0.021,103.0,104.0,102.0,13.4,1505.2,331.2,-0.7,1.8,2470.605,13.28,0.022,318.6
2021-10-07T08:25:03,42.805,6.029,-0.026,0.013,-0.013,105.0,103.0,101.0,13.3,1505.2,325.4,-0.8,1.8,2470.6,13.28,0.029,296.6
2021-10-07T08:28:03,42.805,6.029,-0.03,0.002,0.0,103.0,101.0,101.0,13.4,1505.2,330.2,-0.7,1.8,2470.596,13.28,0.03,273.8
2021-10-07T08:31:03,42.805,6.029,-0.034,-0.007,-0.037,102.0,103.0,101.0,13.3,1505.2,326.8,-0.7,1.8,2470.615,13.29,0.034,258.4
2021-10-07T08:34:03,42.805,6.029,-0.038,0.007,-0.022,103.0,102.0,101.0,13.4,1505.2,328.7,-0.8,1.8,2470.634,13.28,0.038,280.4
2021-10-07T08:37:03,42.805,6.029,-0.007,0.012,-0.004,102.0,103.0,100.0,13.4,1505.2,328.9,-0.7,1.8,2470.614,13.28,0.013,329.7
2021-10-07T08:40:03,42.805,6.029,-0.027,0.004,0.004,103.0,101.0,101.0,13.4,1505.2,329.3,-0.7,1.8,2470.584,13.29,0.027,278.4
2021-10-07T08:43:03,42.805,6.029,-0.058,0.008,-0.026,103.0,101.0,101.0,13.4,1505.2,329.6,-0.7,1.8,2470.585,13.28,0.058,277.8
2021-10-07T08:46:03,42.805,6.029,-0.042,0.012,0.014,103.0,103.0,102.0,13.3,1505.2,329.4,-0.7,1.8,2470.605,13.29,0.043,285.9
2021-10-07T08:49:03,42.805,6.029,-0.032,0.005,-0.016,104.0,103.0,100.0,13.4,1505.2,325.0,-0.7,1.8,2470.633,13.28,0.032,278.9
2021-10-07T08:52:03,42.805,6.029,-0.034,0.005,-0.024,102.0,103.0,101.0,13.3,1505.2,329.5,-0.8,1.8,2470.589,13.28,0.034,278.4
2021-10-07T08:55:03,42.805,6.029,-0.039,0.003,-0.05,103.0,103.0,102.0,13.4,1505.2,328.9,-0.7,1.8,2470.61,13.28,0.039,274.4
2021-10-07T08:58:03,42.805,6.029,-0.017,-0.004,-0.011,103.0,103.0,101.0,13.4,1505.2,328.9,-0.8,1.8,2470.596,13.28,0.017,256.8
2021-10-07T09:04:03,42.805,6.029,-0.018,0.0,-0.009,103.0,103.0,102.0,13.3,1505.2,329.7,-0.7,1.8,2470.618,13.28,0.018,270.0
2021-10-07T09:07:03,42.805,6.029,-0.038,-0.01,-0.001,103.0,103.0,101.0,13.4,1505.2,330.0,-0.8,1.8,2470.605,13.28,0.039,255.3
2021-10-07T09:10:03,42.805,6.029,-0.015,-0.023,-0.031,103.0,103.0,101.0,13.4,1505.2,330.0,-0.8,1.8,2470.633,13.28,0.027,213.1
2021-10-07T09:13:03,42.805,6.029,-0.036,0.011,-0.017,103.0,101.0,102.0,13.4,1505.2,331.7,-0.8,1.9,2470.587,13.28,0.037,287.0
2021-10-07T09:16:03,42.805,6.029,-0.054,-0.01,-0.024,102.0,102.0,102.0,13.4,1505.2,330.5,-0.7,1.8,2470.611,13.28,0.054,259.5
2021-10-07T09:19:03,42.805,6.029,-0.015,0.001,0.0,102.0,102.0,101.0,13.4,1505.2,327.2,-0.7,1.8,2470.608,13.28,0.015,273.8
2021-10-07T09:22:03,42.805,6.029,-0.032,-0.016,-0.012,103.0,105.0,101.0,13.4,1505.2,326.9,-0.8,1.8,2470.584,13.28,0.035,243.4
2021-10-07T09:25:03,42.805,6.029,-0.028,0.009,-0.006,103.0,101.0,101.0,13.4,1505.2,327.5,-0.7,1.8,2470.597,13.28,0.029,287.8
2021-10-07T09:28:03,42.805,6.029,-0.024,-0.002,0.035,103.0,103.0,102.0,13.3,1505.2,327.9,-0.7,1.8,2470.544,13.28,0.024,265.2
2021-10-07T09:31:03,42.805,6.029,-0.034,0.004,-0.012,103.0,102.0,101.0,13.3,1505.2,328.0,-0.8,1.8,2470.598,13.28,0.034,276.7
2021-10-07T09:34:03,42.805,6.029,-0.04,0.012,-0.007,102.0,103.0,102.0,13.4,1505.2,327.3,-0.8,1.8,2470.571,13.28,0.041,286.7
2021-10-07T09:37:03,42.805,6.029,-0.066,-0.007,-0.032,103.0,102.0,101.0,13.4,1505.2,326.7,-0.7,1.8,2470.538,13.28,0.066,263.9
2021-10-07T09:40:03,42.805,6.029,-0.032,0.015,-0.002,102.0,102.0,101.0,13.4,1505.2,328.2,-0.8,1.8,2470.53,13.28,0.035,295.1
2021-10-07T09:43:03,42.805,6.029,-0.024,-0.014,-0.036,103.0,102.0,101.0,13.4,1505.2,326.7,-0.7,1.8,2470.57,13.28,0.027,239.7
2021-10-07T09:46:03,42.805,6.029,-0.051,-0.016,-0.005,103.0,103.0,101.0,13.4,1505.2,324.8,-0.8,1.8,2470.571,13.28,0.053,252.6
2021-10-07T09:49:03,42.805,6.029,-0.044,-0.002,-0.03,102.0,102.0,101.0,13.4,1505.2,331.4,-0.8,1.8,2470.545,13.28,0.044,267.4